Theta_e
339 348 352 355 354 355 353 351 351 353 352 352 351 351 351 351 349 349 347 345 343 342 342 342 342 345 346 346 347 346 346 345 345 346 347 347 349 349 348 347 349 348 350
340 347 350 355 355 356 354 353 352 353 352 352 352 352 351 350 348 346 345 346 343 341 342 341 340 341 342 342 343 342 342 343 344 343 344 346 346 345 346 344 346 347 349
339 347 352 353 355 355 354 353 353 353 352 352 352 351 350 349 346 346 344 343 341 340 340 339 338 337 337 337 339 339 342 341 343 343 343 342 342 343 343 342 342 343 346
340 348 352 349 353 353 353 353 353 352 351 351 350 350 350 348 346 345 343 342 341 339 338 337 334 333 332 333 334 338 341 340 341 342 341 340 339 341 340 339 339 339 341
341 348 351 349 352 353 353 352 352 352 352 350 349 348 347 347 347 345 342 341 339 338 337 336 333 329 327 328 332 337 340 339 338 341 340 340 339 339 339 337 336 337 338
340 347 347 349 353 352 352 352 351 352 351 349 348 347 347 347 344 344 340 338 337 336 335 334 331 327 324 324 328 336 336 335 337 340 339 338 338 338 338 336 335 335 337
340 346 349 347 348 349 350 350 349 350 350 349 350 348 348 346 342 340 339 338 336 335 333 332 329 325 321 322 325 332 331 329 336 337 338 339 338 338 337 336 334 333 333
339 343 346 341 344 345 347 348 348 348 349 348 347 346 346 344 341 338 337 336 335 333 332 331 328 323 319 320 324 326 326 324 330 331 332 334 331 334 335 334 333 333 333
339 342 345 346 346 337 343 344 344 345 346 346 345 346 344 342 341 337 337 335 334 333 331 329 326 322 318 317 320 321 319 318 324 325 324 327 328 329 330 330 331 330 330
321 332 340 344 343 345 349 338 339 341 342 342 342 340 337 336 335 333 332 335 334 332 331 328 325 322 318 315 314 312 311 314 316 318 320 322 324 324 324 324 326 327 327
311 312 316 328 337 340 344 342 334 335 337 337 338 332 332 343 339 335 328 332 333 333 331 328 325 320 313 305 307 307 309 311 311 313 314 316 321 322 322 322 322 323 325
308 309 310 312 319 334 339 342 344 346 347 346 345 345 344 343 339 332 326 327 330 330 330 327 323 316 316 309 306 308 306 306 308 309 309 311 316 321 321 321 322 323 324
306 309 310 311 312 319 336 340 343 343 344 345 344 343 342 341 335 331 330 329 330 323 326 325 322 324 319 313 308 306 305 306 306 307 307 308 313 315 321 323 320 321 323
306 308 311 312 314 314 330 338 340 340 341 341 343 339 339 335 332 331 330 329 328 326 324 322 322 323 320 314 310 307 306 306 306 306 307 304 309 314 317 321 324 321 324
305 308 310 314 317 318 320 336 338 338 338 337 334 334 335 336 332 330 328 328 327 327 325 323 320 323 321 317 313 308 306 306 305 306 306 306 306 311 316 320 324 326 325
304 307 311 312 319 318 321 334 335 333 329 327 326 327 327 329 329 329 328 326 331 328 323 320 318 318 322 318 315 311 309 307 306 305 305 306 303 306 310 316 321 326 330
304 304 304 309 321 322 326 320 319 318 318 317 317 317 321 323 323 321 322 322 320 319 316 312 311 311 311 314 315 313 311 309 307 305 304 304 305 307 306 311 315 320 325
302 300 303 311 315 315 314 313 312 312 311 311 313 314 314 317 320 320 315 314 315 314 312 311 311 310 308 306 306 307 308 310 309 308 306 305 304 304 307 307 311 313 317
299 300 303 307 309 309 308 306 304 304 303 303 305 304 307 312 313 314 313 312 313 312 308 309 305 307 308 306 306 305 303 306 311 308 308 306 305 303 303 307 306 308 310
299 299 301 302 306 306 305 304 303 301 302 302 303 304 305 307 310 309 306 307 310 306 305 309 305 306 302 302 301 302 303 304 309 308 305 303 303 302 303 303 305 306 308
299 299 300 302 304 309 309 307 303 300 298 297 296 298 299 301 302 305 305 306 307 304 304 303 304 302 303 302 303 307 307 306 306 305 304 303 302 301 302 302 303 304 305
296 298 300 301 302 303 304 302 300 297 294 294 294 293 294 295 296 297 299 299 300 301 301 301 302 304 305 303 300 303 303 306 303 304 305 302 301 302 303 301 301 301 303
293 294 295 296 298 300 300 298 296 295 294 292 291 291 291 292 292 292 292 293 293 295 295 296 298 299 299 301 300 298 298 298 298 304 304 302 302 302 301 302 302 302 302
291 292 293 293 294 295 296 296 296 293 289 289 289 290 290 291 290 291 291 291 291 291 291 291 292 293 296 294 299 298 299 296 293 294 300 301 300 300 302 302 302 302 303
290 291 291 291 291 292 292 292 291 289 289 289 290 289 289 290 290 289 290 290 289 289 290 290 290 290 290 289 289 291 294 296 296 293 291 294 297 298 300 300 300 301 301
289 289 289 289 288 289 290 290 289 289 289 289 289 288 288 288 288 288 288 288 288 288 288 288 289 288 288 288 288 289 288 287 287 287 287 288 289 292 293 295 297 299 301
Wind_Speed
7 11 7 12 13 14 13 12 12 11 11 11 11 12 11 12 13 14 14 13 13 13 13 13 13 13 13 13 13 14 14 13 13 13 13 14 14 15 16 17 14 12 11
8 12 9 12 13 14 13 11 10 10 10 10 9 11 10 12 12 12 13 11 12 14 13 12 12 12 12 12 13 13 10 10 10 10 5 11 13 13 14 15 15 15 16
8 12 12 9 12 14 14 11 10 9 9 11 11 11 12 12 11 12 12 12 12 12 12 12 13 12 12 11 10 9 8 7 8 6 4 6 10 11 13 13 13 14 14
9 12 13 9 11 14 13 11 10 10 10 10 9 9 10 10 10 11 11 11 11 11 11 11 12 12 12 11 9 8 9 6 6 3 4 6 8 11 11 12 13 13 11
10 11 10 8 10 13 12 12 10 9 9 9 9 9 8 9 7 9 10 10 10 10 10 10 11 12 11 11 10 8 9 7 3 2 5 6 5 9 10 11 10 12 13
6 9 9 7 8 10 12 12 11 11 9 9 9 9 8 9 12 11 11 10 10 10 9 9 11 11 11 9 8 8 8 6 6 5 5 5 7 8 9 9 9 8 10
6 8 8 6 5 9 10 11 11 11 11 9 10 10 10 11 10 10 10 9 8 8 9 9 10 12 11 10 8 7 7 6 4 5 4 5 7 8 8 8 7 7 8
4 4 6 7 5 6 8 10 9 10 11 10 10 11 12 12 8 7 6 5 7 7 8 9 10 10 10 11 10 9 8 7 1 4 4 4 9 7 6 5 6 6 6
5 3 3 6 7 5 5 6 10 10 9 8 8 10 9 10 10 8 7 7 7 7 8 9 9 10 10 11 11 10 9 8 4 4 4 3 9 6 6 6 5 5 5
9 7 5 2 5 6 8 5 5 7 7 7 6 5 10 7 9 8 6 7 7 7 9 9 8 9 9 10 11 9 6 2 5 4 3 6 9 6 6 6 5 5 5
7 8 7 6 4 6 6 5 5 4 5 4 3 8 9 5 7 6 8 7 7 9 9 8 8 8 6 5 7 8 6 4 4 3 3 9 9 8 6 6 5 5 4
9 8 7 7 5 6 4 5 5 6 7 7 7 8 6 5 5 5 5 8 6 7 8 8 8 5 2 4 3 2 4 5 4 4 3 9 9 8 7 5 6 5 3
9 7 8 7 6 5 4 3 1 1 2 4 7 4 3 4 4 3 3 3 3 3 3 4 3 2 4 3 3 3 4 4 4 3 4 9 10 9 9 8 5 5 2
10 10 10 8 6 5 4 4 3 2 1 3 1 2 2 3 3 3 3 4 4 3 3 3 1 2 3 3 3 4 4 4 3 3 3 7 10 10 9 9 8 5 3
9 10 11 10 7 4 5 3 2 2 2 5 5 6 6 2 1 3 3 3 2 3 3 3 2 2 3 1 2 4 5 5 5 3 3 2 7 9 10 11 10 8 5
11 12 11 10 9 1 5 6 5 6 8 8 8 7 8 5 4 3 1 2 4 0 2 2 2 4 3 2 1 3 4 5 6 6 5 5 4 7 8 10 10 10 11
9 10 11 11 9 9 13 11 9 8 10 8 7 11 11 8 6 5 3 5 5 4 4 3 2 2 2 4 5 5 5 5 5 6 6 6 6 5 6 7 8 10 12
8 8 7 7 12 14 13 10 9 10 9 8 8 8 12 11 9 8 6 5 4 4 3 2 2 2 2 2 3 3 4 5 5 5 5 5 5 6 5 6 9 8 9
9 8 9 11 12 13 14 12 12 12 10 9 9 9 13 12 12 10 8 6 6 4 4 1 2 1 1 1 3 3 4 5 6 4 5 5 6 5 5 7 9 12 10
8 9 9 9 10 12 10 10 9 10 10 10 11 11 13 10 12 10 8 9 8 7 6 6 4 4 4 5 5 4 4 5 5 4 4 3 4 5 6 6 5 5 8
8 9 9 10 8 7 8 9 9 11 10 11 11 15 14 13 13 11 9 10 9 8 9 9 4 5 5 6 4 3 4 5 3 1 2 2 3 3 5 5 5 5 5
9 10 10 11 10 8 7 8 8 9 10 10 10 13 14 14 14 12 11 10 11 8 11 11 11 6 5 8 7 5 4 2 3 3 4 3 4 5 6 5 6 6 6
10 9 9 10 11 10 12 10 11 11 10 9 10 10 12 14 14 14 14 12 12 10 10 11 11 12 7 7 10 5 5 5 11 2 6 5 7 8 7 7 8 8 8
9 8 10 10 10 9 8 9 12 10 11 9 9 9 10 13 14 13 14 13 12 9 11 10 10 10 9 8 3 7 5 4 5 8 5 10 6 12 11 8 9 9 9
7 8 9 11 12 11 11 11 11 13 10 8 8 11 11 11 12 12 12 12 11 9 10 11 10 10 8 6 6 6 5 5 2 6 11 10 10 10 10 9 11 9 10
6 7 8 11 12 11 12 13 14 14 11 8 8 8 7 7 7 10 10 9 10 9 9 8 8 9 8 7 6 5 4 4 7 6 10 12 13 8 10 10 9 8 8
Wind_Direction
183 163 184 159 154 144 130 129 124 122 120 119 122 118 112 100 91 85 85 81 71 62 60 56 58 51 47 39 59 65 57 55 55 54 56 54 54 55 47 37 31 54 48
154 168 168 160 159 141 136 135 128 126 128 124 121 116 116 109 94 92 90 81 73 67 60 55 55 57 49 39 38 47 51 53 59 55 38 100 61 56 52 47 41 45 50
168 165 174 167 166 146 135 136 134 132 127 122 115 122 126 110 105 102 91 81 79 73 59 52 52 49 45 40 40 40 46 52 60 48 329 63 69 54 55 51 46 45 46
170 167 171 175 165 141 140 146 144 144 139 130 125 119 114 115 115 112 106 99 89 78 67 52 46 44 38 34 33 38 41 48 70 307 63 56 72 58 55 50 45 39 34
159 172 165 173 163 143 148 157 153 149 142 140 137 134 128 124 125 122 110 99 89 79 69 53 45 39 35 32 31 42 46 54 43 279 60 50 65 64 48 43 47 43 32
152 176 146 181 176 161 176 170 159 149 146 146 140 132 131 133 107 105 113 99 85 76 64 51 42 35 32 32 38 50 51 38 305 45 50 79 36 50 42 41 46 45 34
144 171 176 199 206 196 194 173 164 163 162 166 157 145 132 125 118 107 104 96 90 84 65 52 42 34 30 32 33 53 50 33 29 52 45 29 40 25 30 28 33 32 33
121 163 187 188 229 226 212 176 172 180 174 183 184 164 157 137 126 109 92 89 78 71 60 53 42 41 35 31 35 39 38 5 16 45 33 21 11 12 23 34 28 32 26
72 108 172 203 217 259 260 212 181 196 187 195 204 173 174 135 127 104 80 72 69 70 66 67 44 43 36 36 41 40 31 12 349 19 359 7 4 7 14 18 12 15 15
44 29 10 249 228 229 232 241 225 199 194 206 201 195 141 132 120 108 112 75 62 78 75 86 60 58 39 32 32 31 19 328 20 10 18 25 353 359 4 2 354 354 8
33 21 7 345 300 245 242 239 223 244 240 237 214 127 155 182 154 156 96 91 71 87 85 85 77 64 53 60 33 19 326 21 5 16 5 2 350 347 348 350 343 344 356
8 1 358 342 326 311 249 233 242 244 232 221 213 185 198 179 139 106 106 100 94 99 107 106 106 90 16 14 15 346 10 359 355 355 14 357 349 343 334 336 339 339 348
346 351 352 337 316 279 263 233 194 202 283 249 241 232 220 165 144 134 146 138 136 125 117 127 142 50 50 17 16 7 357 342 346 345 17 352 346 340 335 327 318 315 317
347 348 344 340 313 275 238 211 186 166 198 275 310 112 170 134 144 171 181 167 166 169 167 156 181 108 73 38 5 349 350 340 347 335 354 357 340 337 332 325 315 296 267
357 351 349 340 330 289 218 177 147 106 62 52 36 20 6 33 184 174 166 188 200 188 202 173 174 199 145 92 4 344 339 334 325 315 309 5 334 336 337 333 322 305 261
355 359 356 349 342 32 178 106 85 68 64 58 50 45 37 33 21 8 300 232 244 26 13 5 17 343 354 5 24 351 335 326 324 320 317 310 315 327 330 331 329 316 308
4 3 4 350 38 88 71 67 67 65 67 57 47 37 39 38 54 60 25 38 33 36 43 52 24 57 24 349 353 345 329 323 315 317 317 315 314 279 315 319 331 327 322
19 15 17 36 75 78 76 74 71 64 65 55 50 48 45 47 56 67 62 46 47 66 56 53 25 33 41 25 331 314 301 296 291 295 298 305 313 316 311 325 323 320 321
21 21 39 49 70 82 85 82 75 71 63 63 59 44 42 48 53 59 55 35 27 66 64 43 83 348 1 343 307 297 281 280 283 270 276 291 296 291 306 321 321 311 310
40 44 47 51 67 82 80 82 77 73 70 60 50 46 47 47 50 58 49 36 42 43 30 29 22 15 31 341 304 281 254 243 252 271 306 313 307 301 298 301 302 306 314
70 71 66 74 76 103 95 92 81 76 70 63 55 47 45 45 48 51 50 40 52 49 36 34 15 15 28 351 312 302 277 267 272 248 22 26 21 7 332 305 296 303 300
70 68 68 69 70 76 89 94 88 84 70 72 67 57 51 52 48 49 53 51 44 45 41 32 27 10 31 19 349 294 324 259 51 284 329 351 2 344 336 333 324 311 302
67 66 72 75 78 83 99 106 106 103 91 79 64 59 50 51 50 52 53 50 47 43 42 34 25 31 23 28 34 1 333 343 337 16 334 354 335 339 337 330 312 305 298
79 80 82 79 79 75 85 94 99 98 97 86 83 80 64 52 50 48 50 49 51 49 43 38 32 30 20 26 26 17 360 328 331 317 329 326 341 324 322 317 312 308 303
74 81 88 90 88 88 93 99 98 97 99 99 92 85 75 63 55 50 47 49 50 45 41 37 33 34 34 33 24 2 348 331 324 304 305 322 316 324 316 320 314 307 306
98 94 96 98 93 96 97 94 97 104 108 107 100 91 81 72 65 53 51 49 49 44 33 32 27 30 23 23 7 8 5 344 332 317 307 309 312 311 327 305 311 313 316